User: anonymous   Login
Location: Bonn
(50.7330°N, 7.1000°E)
Time: 19:17:30
(UTC+01:00)
Language:

Iridium 84 - Orbit

View from above orbital plane
View from above orbital plane
View from above satellite
View from above satellite

Ground track
Ground track

The orbit data is extracted from the following two-line orbital elements,

1 25530U 98066D   15024.52680225  .00000063  00000-0  15606-4 0  9582
2 25530 086.3974 355.6131 0002254 103.1737 256.9710 14.34215260851634
Epoch (UTC): 24 January 2015 12:38:35
Eccentricity: 0.0002254
inclination: 86.3974°
perigee height: 776 km
apogee height: 779 km
right ascension of ascending node: 355.6131°
argument of perigee: 103.1737°
revolutions per day: 14.34215260
mean anomaly at epoch: 256.9710°
orbit number at epoch: 85163

The dashed part of the orbit path shows where the satellite is in the earth's shadow,  

DLR